Weather History for KM19 - October, 2011

Change the Weather History Date:

Thursday, October 20, 2011

  Actual Average (KJBR) Record (KJBR)
Temperature  
Mean Temperature 50 °F 60 °F  
Max Temperature 61 °F 71 °F 89 °F (1963)
Min Temperature 38 °F 49 °F 22 °F (1917)
Degree Days  
Heating Degree Days 16 6  
Month to date heating degree days 83  
Since 1 July heating degree days 101  
Cooling Degree Days 0 1  
Month to date cooling degree days 42  
Year to date cooling degree days 1813  
Moisture  
Dew Point 34 °F    
Average Humidity 61    
Maximum Humidity 83    
Minimum Humidity 35    
Precipitation  
Precipitation 0.01 in 0.16 in 2.38 in (1984)
Month to date precipitation 2.74  
Year to date precipitation 36.91  
Snow  
Snow 0.00 in 0.00 in 0.00 in (2002)
Month to date snowfall 0.0  
Since 1 July snowfall 0.0  
Since 1 September snowfall 0.0  
Snow Depth -    
Sea Level Pressure  
Sea Level Pressure 30.02 in    
Wind  
Wind Speed 10 mph (West)    
Max Wind Speed 17 mph    
Max Gust Speed 20 mph    
T = Trace of Precipitation, MM = Missing Value Source: NWS Daily Summary

Daily Weather History Graph

Daily Weather History Graph

Search for Another Location

Airport or City:

Trip Planner

Search our weather history database for the weather conditions in past years. The results will help you decide how hot, cold, wet, or windy it might be!

Date:

Astronomy

Oct. 20, 2011 Rise Set
Actual Time 7:15 AM CDT 6:23 PM CDT
Civil Twilight 6:49 AM CDT 6:48 PM CDT
Nautical Twilight 6:19 AM CDT 7:18 PM CDT
Astronomical Twilight 5:50 AM CDT 7:48 PM CDT
Moon 12:14 AM CDT (10/20) 2:19 PM CDT (10/20)
Length of Visible Light 11h 59m
Length of Day
11h 07m
Last Quarter, 44% of the Moon is Illuminated
Oct 20
Last Quarter
Oct 26
New
Nov 2
First Quarter
Nov 10
Full
Nov 18
Last Quarter

Hourly Weather History & Observations

Time (CDT) Temp. Windchill Dew Point Humidity Pressure Visibility Wind Dir Wind Speed Gust Speed Precip Events Conditions
12:56 AM 43.0 °F 37.2 °F 34.9 °F 73% 29.94 in - West 10.4 mph - N/A   Clear
1:56 AM 41.9 °F 36.9 °F 34.9 °F 76% 29.95 in - West 8.1 mph - N/A   Mostly Cloudy
2:56 AM 39.9 °F 33.9 °F 34.9 °F 82% 29.95 in - WSW 9.2 mph - N/A   Mostly Cloudy
3:56 AM 39.9 °F 33.9 °F 34.9 °F 82% 29.96 in - WSW 9.2 mph - N/A   Clear
4:56 AM 39.9 °F 33.9 °F 34.0 °F 79% 29.97 in - WSW 9.2 mph - N/A   Clear
5:56 AM 38.8 °F 34.6 °F 34.0 °F 83% 29.99 in - WSW 5.8 mph - N/A   Clear
6:56 AM 38.8 °F 32.1 °F 34.0 °F 83% 29.99 in - West 10.4 mph - N/A   Clear
7:56 AM 41.9 °F 35.4 °F 34.0 °F 73% 30.00 in - West 11.5 mph - 0.01 in   Clear
8:56 AM 45.9 °F 40.0 °F 34.9 °F 66% 30.03 in - WSW 12.7 mph - N/A   Clear
9:56 AM 48.9 °F - 34.9 °F 58% 30.03 in - WNW 12.7 mph - N/A   Clear
10:56 AM 52.9 °F - 34.9 °F 50% 30.04 in - NW 17.3 mph - N/A   Clear
11:56 AM 54.9 °F - 34.9 °F 47% 30.04 in - West 12.7 mph - N/A   Clear
12:56 PM 57.9 °F - 34.9 °F 42% 30.02 in - West 15.0 mph - N/A   Clear
1:56 PM 59.9 °F - 34.9 °F 39% 30.01 in - West 15.0 mph 19.6 mph N/A   Clear
2:56 PM 59.9 °F - 34.0 °F 38% 30.00 in - WSW 12.7 mph 19.6 mph N/A   Clear
3:56 PM 61.0 °F - 32.9 °F 35% 30.01 in - West 12.7 mph 17.3 mph N/A   Clear
4:56 PM 59.9 °F - 32.0 °F 35% 30.01 in - West 12.7 mph - N/A   Clear
5:56 PM 56.8 °F - 34.0 °F 42% 30.02 in - West 11.5 mph - N/A   Clear
6:56 PM 52.0 °F - 34.9 °F 52% 30.04 in - WNW 5.8 mph - N/A   Clear
8:56 PM 47.8 °F - 34.0 °F 59% 30.08 in - West 6.9 mph - N/A   Clear
9:56 PM 45.9 °F 41.7 °F 34.0 °F 63% 30.11 in - WNW 8.1 mph - N/A   Clear
10:56 PM 43.9 °F 39.9 °F 34.0 °F 68% 30.12 in - West 6.9 mph - N/A   Clear
11:56 PM 41.9 °F 36.9 °F 34.0 °F 73% 30.13 in - WNW 8.1 mph - N/A   Clear